カタログに戻る

CZ-6A DEB

運用中PO
NORAD 60883·DEBRIS·🇨🇳 China

打ち上げ Aug 6, 2024 から Taiyuan Satellite Launch Center

Loading…

次のパス (今後24時間)

TLE

最新Source: Space-Track

元期: Sep 14, 2026, 09:27 UTC

1 60883U 24140KN  26257.39422210  .00003432  00000-0  39416-3 0  9999
2 60883  88.8021 236.9210 0127867 234.5912 124.3317 14.79801654111160

AllMySatでCZ-6A DEBをリアルタイム追跡

Download on the App Store